CZ-3B R/B (44710 NORAD) Tracking and Keplerian Element Data

This shows tracking and keplerian element data for the satellite.

Feedback or suggestion? Click here.




ElementValue
Catalog44710
NameCZ-3B R/B
Epoch Orbit71
Epoch Day338.07354398
Epoch Year2019
RAAN295.037
Inclination28.4193
Eccentricity0.7223979
Argument of Perigee197.8172
Mean Anonmoly109.932
Mean Motion2.41249709
Decay Rate0.00071313
L11 44710U 19073B 19338.07354398 .00071313 28471-6 34942-3 0 9997
L22 44710 28.4193 295.0370 7223979 197.8172 109.9320 2.41249709 715

Live tracking and technical data element details for CZ-3B R/B (NORAD 44710). CZ-3B R/B can be tracked NOW for your location showing map with azimuth and elevation plus other details from your city location.

Track the satellite on the map from your city or location and see movement details for azimuth, elevation, latitude, longitude, range, height, and movement on the map or in text.







IsCatalogInMostPopularTable: catalog: 44710, numindb: 6
Update: records affected: 1



GetName: 44710 CZ-3B R/B

Hit Count: updated at: Thu, 12 Dec 2019 01:09:43 GMT